Year,Month,Day,Hour,Minute,Value (Times are PST for temperature in C)
2013,07,12,00,00,11.80
2013,07,12,00,01,11.80
2013,07,12,00,02,11.80
2013,07,12,00,03,11.80
2013,07,12,00,04,11.80
2013,07,12,00,05,11.80
2013,07,12,00,06,11.80
2013,07,12,00,07,11.80
2013,07,12,00,08,11.80
2013,07,12,00,09,11.80
2013,07,12,00,10,11.70
2013,07,12,00,11,11.70
2013,07,12,00,12,11.70
2013,07,12,00,13,11.70
2013,07,12,00,14,11.70
2013,07,12,00,15,11.70
2013,07,12,00,16,11.70
2013,07,12,00,17,11.70
2013,07,12,00,18,11.70
2013,07,12,00,19,11.70
2013,07,12,00,20,11.70
2013,07,12,00,21,11.70
2013,07,12,00,22,11.70
2013,07,12,00,23,11.70
2013,07,12,00,24,11.70
2013,07,12,00,25,11.70
2013,07,12,00,26,11.70
2013,07,12,00,27,11.70
2013,07,12,00,28,11.70
2013,07,12,00,29,11.70
2013,07,12,00,30,11.70
2013,07,12,00,31,11.70
2013,07,12,00,32,11.70
2013,07,12,00,33,11.60
2013,07,12,00,34,11.60
2013,07,12,00,35,11.60
2013,07,12,00,36,11.60
2013,07,12,00,37,11.60
2013,07,12,00,38,11.60
2013,07,12,00,39,11.60
2013,07,12,00,40,11.60
2013,07,12,00,41,11.60
2013,07,12,00,42,11.60
2013,07,12,00,43,11.60
2013,07,12,00,44,11.60
2013,07,12,00,45,11.60
2013,07,12,00,46,11.60
2013,07,12,00,47,11.60
2013,07,12,00,48,11.60
2013,07,12,00,49,11.60
2013,07,12,00,50,11.60
2013,07,12,00,51,11.50
2013,07,12,00,52,11.50
2013,07,12,00,53,11.50
2013,07,12,00,54,11.50
2013,07,12,00,55,11.50
2013,07,12,00,56,11.50
2013,07,12,00,57,11.50
2013,07,12,00,58,11.50
2013,07,12,00,59,11.50
2013,07,12,01,00,11.50
2013,07,12,01,01,11.50
2013,07,12,01,02,11.40
2013,07,12,01,03,11.40
2013,07,12,01,04,11.40
2013,07,12,01,05,11.40
2013,07,12,01,06,11.40
2013,07,12,01,07,11.40
2013,07,12,01,08,11.40
2013,07,12,01,09,11.40
2013,07,12,01,10,11.40
2013,07,12,01,11,11.40
2013,07,12,01,12,11.40
2013,07,12,01,13,11.40
2013,07,12,01,14,11.30
2013,07,12,01,15,11.30
2013,07,12,01,16,11.30
2013,07,12,01,17,11.30
2013,07,12,01,18,11.30
2013,07,12,01,19,11.30
2013,07,12,01,20,11.30
2013,07,12,01,21,11.30
2013,07,12,01,22,11.30
2013,07,12,01,23,11.30
2013,07,12,01,24,11.30
2013,07,12,01,25,11.30
2013,07,12,01,26,11.30
2013,07,12,01,27,11.20
2013,07,12,01,28,11.20
2013,07,12,01,29,11.20
2013,07,12,01,30,11.20
2013,07,12,01,31,11.20
2013,07,12,01,32,11.20
2013,07,12,01,33,11.20
2013,07,12,01,34,11.20
2013,07,12,01,35,11.20
2013,07,12,01,36,11.20
2013,07,12,01,37,11.20
2013,07,12,01,38,11.20
2013,07,12,01,39,11.10
2013,07,12,01,40,11.10
2013,07,12,01,41,11.10
2013,07,12,01,42,11.10
2013,07,12,01,43,11.10
2013,07,12,01,44,11.10
2013,07,12,01,45,11.10
2013,07,12,01,46,11.10
2013,07,12,01,47,11.10
2013,07,12,01,48,11.00
2013,07,12,01,49,11.00
2013,07,12,01,50,11.00
2013,07,12,01,51,11.00
2013,07,12,01,52,11.00
2013,07,12,01,53,11.00
2013,07,12,01,54,11.00
2013,07,12,01,55,11.00
2013,07,12,01,56,10.90
2013,07,12,01,57,10.90
2013,07,12,01,58,10.90
2013,07,12,01,59,10.90
2013,07,12,02,00,10.90
2013,07,12,02,01,10.90
2013,07,12,02,02,10.90
2013,07,12,02,03,10.90
2013,07,12,02,04,10.90
2013,07,12,02,05,10.90
2013,07,12,02,06,10.90
2013,07,12,02,07,10.90
2013,07,12,02,08,10.90
2013,07,12,02,09,10.90
2013,07,12,02,10,10.90
2013,07,12,02,11,10.90
2013,07,12,02,12,10.80
2013,07,12,02,13,10.80
2013,07,12,02,14,10.80
2013,07,12,02,15,10.80
2013,07,12,02,16,10.80
2013,07,12,02,17,10.80
2013,07,12,02,18,10.80
2013,07,12,02,19,10.80
2013,07,12,02,20,10.80
2013,07,12,02,21,10.80
2013,07,12,02,22,10.80
2013,07,12,02,23,10.80
2013,07,12,02,24,10.80
2013,07,12,02,25,10.80
2013,07,12,02,26,10.70
2013,07,12,02,27,10.70
2013,07,12,02,28,10.70
2013,07,12,02,29,10.70
2013,07,12,02,30,10.60
2013,07,12,02,31,10.60
2013,07,12,02,32,10.60
2013,07,12,02,33,10.60
2013,07,12,02,34,10.60
2013,07,12,02,35,10.50
2013,07,12,02,36,10.50
2013,07,12,02,37,10.50
2013,07,12,02,38,10.50
2013,07,12,02,39,10.50
2013,07,12,02,40,10.50
2013,07,12,02,41,10.40
2013,07,12,02,42,10.40
2013,07,12,02,43,10.40
2013,07,12,02,44,10.40
2013,07,12,02,45,10.40
2013,07,12,02,46,10.40
2013,07,12,02,47,10.40
2013,07,12,02,48,10.40
2013,07,12,02,49,10.40
2013,07,12,02,50,10.40
2013,07,12,02,51,10.40
2013,07,12,02,52,10.40
2013,07,12,02,53,10.40
2013,07,12,02,54,10.40
2013,07,12,02,55,10.40
2013,07,12,02,56,10.50
2013,07,12,02,57,10.50
2013,07,12,02,58,10.50
2013,07,12,02,59,10.50
2013,07,12,03,00,10.50
2013,07,12,03,01,10.50
2013,07,12,03,02,10.50
2013,07,12,03,03,10.50
2013,07,12,03,04,10.50
2013,07,12,03,05,10.50
2013,07,12,03,06,10.50
2013,07,12,03,07,10.50
2013,07,12,03,08,10.50
2013,07,12,03,09,10.50
2013,07,12,03,10,10.50
2013,07,12,03,11,10.50
2013,07,12,03,12,10.50
2013,07,12,03,13,10.50
2013,07,12,03,14,10.50
2013,07,12,03,15,10.50
2013,07,12,03,16,10.40
2013,07,12,03,17,10.40
2013,07,12,03,18,10.40
2013,07,12,03,19,10.40
2013,07,12,03,20,10.30
2013,07,12,03,21,10.30
2013,07,12,03,22,10.30
2013,07,12,03,23,10.30
2013,07,12,03,24,10.30
2013,07,12,03,25,10.30
2013,07,12,03,26,10.30
2013,07,12,03,27,10.30
2013,07,12,03,28,10.30
2013,07,12,03,29,10.20
2013,07,12,03,30,10.20
2013,07,12,03,31,10.20
2013,07,12,03,32,10.20
2013,07,12,03,33,10.10
2013,07,12,03,34,10.10
2013,07,12,03,35,10.10
2013,07,12,03,36,10.10
2013,07,12,03,37,10.10
2013,07,12,03,38,10.00
2013,07,12,03,39,10.00
2013,07,12,03,40,10.00
2013,07,12,03,41,10.00
2013,07,12,03,42,9.90
2013,07,12,03,43,9.90
2013,07,12,03,44,9.90
2013,07,12,03,45,9.90
2013,07,12,03,46,9.80
2013,07,12,03,47,9.80
2013,07,12,03,48,9.80
2013,07,12,03,49,9.80
2013,07,12,03,50,9.80
2013,07,12,03,51,9.80
2013,07,12,03,52,9.80
2013,07,12,03,53,9.80
2013,07,12,03,54,9.80
2013,07,12,03,55,9.80
2013,07,12,03,56,9.80
2013,07,12,03,57,9.80
2013,07,12,03,58,9.80
2013,07,12,03,59,9.80
2013,07,12,04,00,9.80
2013,07,12,04,01,9.80
2013,07,12,04,02,9.80
2013,07,12,04,03,9.80
2013,07,12,04,04,9.80
2013,07,12,04,05,9.80
2013,07,12,04,06,9.80
2013,07,12,04,07,9.80
2013,07,12,04,08,9.80
2013,07,12,04,09,9.80
2013,07,12,04,10,9.80
2013,07,12,04,11,9.80
2013,07,12,04,12,9.70
2013,07,12,04,13,9.70
2013,07,12,04,14,9.70
2013,07,12,04,15,9.70
2013,07,12,04,16,9.70
2013,07,12,04,17,9.70
2013,07,12,04,18,9.70
2013,07,12,04,19,9.60
2013,07,12,04,20,9.60
2013,07,12,04,21,9.60
2013,07,12,04,22,9.60
2013,07,12,04,23,9.60
2013,07,12,04,24,9.60
2013,07,12,04,25,9.60
2013,07,12,04,26,9.60
2013,07,12,04,27,9.60
2013,07,12,04,28,9.60
2013,07,12,04,29,9.60
2013,07,12,04,30,9.60
2013,07,12,04,31,9.50
2013,07,12,04,32,9.50
2013,07,12,04,33,9.50
2013,07,12,04,34,9.50
2013,07,12,04,35,9.40
2013,07,12,04,36,9.40
2013,07,12,04,37,9.40
2013,07,12,04,38,9.40
2013,07,12,04,39,9.40
2013,07,12,04,40,9.40
2013,07,12,04,41,9.40
2013,07,12,04,42,9.40
2013,07,12,04,43,9.40
2013,07,12,04,44,9.40
2013,07,12,04,45,9.40
2013,07,12,04,46,9.40
2013,07,12,04,47,9.40
2013,07,12,04,48,9.40
2013,07,12,04,49,9.50
2013,07,12,04,50,9.50
2013,07,12,04,51,9.50
2013,07,12,04,52,9.50
2013,07,12,04,53,9.50
2013,07,12,04,54,9.50
2013,07,12,04,55,9.50
2013,07,12,04,56,9.50
2013,07,12,04,57,9.50
2013,07,12,04,58,9.50
2013,07,12,04,59,9.50
2013,07,12,05,00,9.50
2013,07,12,05,01,9.50
2013,07,12,05,02,9.50
2013,07,12,05,03,9.50
2013,07,12,05,04,9.50
2013,07,12,05,05,9.50
2013,07,12,05,06,9.50
2013,07,12,05,07,9.50
2013,07,12,05,08,9.50
2013,07,12,05,09,9.50
2013,07,12,05,10,9.50
2013,07,12,05,11,9.40
2013,07,12,05,12,9.40
2013,07,12,05,13,9.40
2013,07,12,05,14,9.40
2013,07,12,05,15,9.40
2013,07,12,05,16,9.40
2013,07,12,05,17,9.40
2013,07,12,05,18,9.40
2013,07,12,05,19,9.30
2013,07,12,05,20,9.30
2013,07,12,05,21,9.30
2013,07,12,05,22,9.30
2013,07,12,05,23,9.30
2013,07,12,05,24,9.30
2013,07,12,05,25,9.30
2013,07,12,05,26,9.30
2013,07,12,05,27,9.30
2013,07,12,05,28,9.30
2013,07,12,05,29,9.30
2013,07,12,05,30,9.30
2013,07,12,05,31,9.30
2013,07,12,05,32,9.20
2013,07,12,05,33,9.20
2013,07,12,05,34,9.20
2013,07,12,05,35,9.20
2013,07,12,05,36,9.20
2013,07,12,05,37,9.20
2013,07,12,05,38,9.20
2013,07,12,05,39,9.20
2013,07,12,05,40,9.20
2013,07,12,05,41,9.20
2013,07,12,05,42,9.20
2013,07,12,05,43,9.20
2013,07,12,05,44,9.20
2013,07,12,05,45,9.20
2013,07,12,05,46,9.20
2013,07,12,05,47,9.20
2013,07,12,05,48,9.20
2013,07,12,05,49,9.20
2013,07,12,05,50,9.20
2013,07,12,05,51,9.20
2013,07,12,05,52,9.20
2013,07,12,05,53,9.20
2013,07,12,05,54,9.20
2013,07,12,05,55,9.20
2013,07,12,05,56,9.30
2013,07,12,05,57,9.30
2013,07,12,05,58,9.30
2013,07,12,05,59,9.40
2013,07,12,06,00,9.40
2013,07,12,06,01,9.50
2013,07,12,06,02,9.50
2013,07,12,06,03,9.60
2013,07,12,06,04,9.60
2013,07,12,06,05,9.70
2013,07,12,06,06,9.70
2013,07,12,06,07,9.80
2013,07,12,06,08,9.90
2013,07,12,06,09,10.00
2013,07,12,06,10,10.10
2013,07,12,06,11,10.10
2013,07,12,06,12,10.30
2013,07,12,06,13,10.30
2013,07,12,06,14,10.40
2013,07,12,06,15,10.50
2013,07,12,06,16,10.60
2013,07,12,06,17,10.60
2013,07,12,06,18,10.70
2013,07,12,06,19,10.70
2013,07,12,06,20,10.80
2013,07,12,06,21,10.80
2013,07,12,06,22,10.80
2013,07,12,06,23,10.80
2013,07,12,06,24,10.80
2013,07,12,06,25,10.90
2013,07,12,06,26,10.90
2013,07,12,06,27,10.90
2013,07,12,06,28,10.90
2013,07,12,06,29,10.90
2013,07,12,06,30,10.90
2013,07,12,06,31,10.90
2013,07,12,06,32,10.90
2013,07,12,06,33,10.90
2013,07,12,06,34,11.00
2013,07,12,06,35,11.00
2013,07,12,06,36,11.00
2013,07,12,06,37,11.00
2013,07,12,06,38,11.00
2013,07,12,06,39,11.00
2013,07,12,06,40,11.00
2013,07,12,06,41,11.10
2013,07,12,06,42,11.10
2013,07,12,06,43,11.10
2013,07,12,06,44,11.10
2013,07,12,06,45,11.10
2013,07,12,06,46,11.10
2013,07,12,06,47,11.10
2013,07,12,06,48,11.10
2013,07,12,06,49,11.20
2013,07,12,06,50,11.20
2013,07,12,06,51,11.20
2013,07,12,06,52,11.20
2013,07,12,06,53,11.20
2013,07,12,06,54,11.20
2013,07,12,06,55,11.20
2013,07,12,06,56,11.20
2013,07,12,06,57,11.20
2013,07,12,06,58,11.20
2013,07,12,06,59,11.30
2013,07,12,07,00,11.30
2013,07,12,07,01,11.30
2013,07,12,07,02,11.30
2013,07,12,07,03,11.30
2013,07,12,07,04,11.30
2013,07,12,07,05,11.30
2013,07,12,07,06,11.30
2013,07,12,07,07,11.30
2013,07,12,07,08,11.30
2013,07,12,07,09,11.30
2013,07,12,07,10,11.40
2013,07,12,07,11,11.40
2013,07,12,07,12,11.40
2013,07,12,07,13,11.40
2013,07,12,07,14,11.40
2013,07,12,07,15,11.40
2013,07,12,07,16,11.40
2013,07,12,07,17,11.40
2013,07,12,07,18,11.40
2013,07,12,07,19,11.40
2013,07,12,07,20,11.40
2013,07,12,07,21,11.40
2013,07,12,07,22,11.40
2013,07,12,07,23,11.40
2013,07,12,07,24,11.40
2013,07,12,07,25,11.40
2013,07,12,07,26,11.40
2013,07,12,07,27,11.40
2013,07,12,07,28,11.40
2013,07,12,07,29,11.40
2013,07,12,07,30,11.40
2013,07,12,07,31,11.40
2013,07,12,07,32,11.40
2013,07,12,07,33,11.40
2013,07,12,07,34,11.40
2013,07,12,07,35,11.40
2013,07,12,07,36,11.40
2013,07,12,07,37,11.40
2013,07,12,07,38,11.50
2013,07,12,07,39,11.50
2013,07,12,07,40,11.50
2013,07,12,07,41,11.40
2013,07,12,07,42,11.40
2013,07,12,07,43,11.50
2013,07,12,07,44,11.50
2013,07,12,07,45,11.50
2013,07,12,07,46,11.50
2013,07,12,07,47,11.50
2013,07,12,07,48,11.60
2013,07,12,07,49,11.60
2013,07,12,07,50,11.60
2013,07,12,07,51,11.60
2013,07,12,07,52,11.60
2013,07,12,07,53,11.60
2013,07,12,07,54,11.60
2013,07,12,07,55,11.60
2013,07,12,07,56,11.60
2013,07,12,07,57,11.60
2013,07,12,07,58,11.60
2013,07,12,07,59,11.60
2013,07,12,08,00,11.60
2013,07,12,08,01,11.60
2013,07,12,08,02,11.60
2013,07,12,08,03,11.70
2013,07,12,08,04,11.70
2013,07,12,08,05,11.70
2013,07,12,08,06,11.70
2013,07,12,08,07,11.70
2013,07,12,08,08,11.70
2013,07,12,08,09,11.70
2013,07,12,08,10,11.70
2013,07,12,08,11,11.70
2013,07,12,08,12,11.70
2013,07,12,08,13,11.70
2013,07,12,08,14,11.70
2013,07,12,08,15,11.70
2013,07,12,08,16,11.70
2013,07,12,08,17,11.70
2013,07,12,08,18,11.70
2013,07,12,08,19,11.70
2013,07,12,08,20,11.70
2013,07,12,08,21,11.80
2013,07,12,08,22,11.80
2013,07,12,08,23,11.80
2013,07,12,08,24,11.80
2013,07,12,08,25,11.80
2013,07,12,08,26,11.80
2013,07,12,08,27,11.90
2013,07,12,08,28,11.90
2013,07,12,08,29,11.80
2013,07,12,08,30,11.80
2013,07,12,08,31,11.80
2013,07,12,08,32,11.80
2013,07,12,08,33,11.90
2013,07,12,08,34,12.00
2013,07,12,08,35,12.00
2013,07,12,08,36,12.00
2013,07,12,08,37,12.10
2013,07,12,08,38,12.10
2013,07,12,08,39,12.10
2013,07,12,08,40,12.10
2013,07,12,08,41,12.10
2013,07,12,08,42,12.10
2013,07,12,08,43,12.10
2013,07,12,08,44,12.10
2013,07,12,08,45,12.20
2013,07,12,08,46,12.10
2013,07,12,08,47,12.10
2013,07,12,08,48,12.10
2013,07,12,08,49,12.10
2013,07,12,08,50,12.10
2013,07,12,08,51,12.20
2013,07,12,08,52,12.20
2013,07,12,08,53,12.20
2013,07,12,08,54,12.20
2013,07,12,08,55,12.20
2013,07,12,08,56,12.20
2013,07,12,08,57,12.20
2013,07,12,08,58,12.20
2013,07,12,08,59,12.30
2013,07,12,09,00,12.30
2013,07,12,09,01,12.30
2013,07,12,09,02,12.40
2013,07,12,09,03,12.30
2013,07,12,09,04,12.30
2013,07,12,09,05,12.30
2013,07,12,09,06,12.30
2013,07,12,09,07,12.30
2013,07,12,09,08,12.30
2013,07,12,09,09,12.30
2013,07,12,09,10,12.30
2013,07,12,09,11,12.30
2013,07,12,09,12,12.40
2013,07,12,09,13,12.40
2013,07,12,09,14,12.40
2013,07,12,09,15,12.40
2013,07,12,09,16,12.40
2013,07,12,09,17,12.40
2013,07,12,09,18,12.40
2013,07,12,09,19,12.40
2013,07,12,09,20,12.50
2013,07,12,09,21,12.50
2013,07,12,09,22,12.50
2013,07,12,09,23,12.60
2013,07,12,09,24,12.60
2013,07,12,09,25,12.60
2013,07,12,09,26,12.50
2013,07,12,09,27,12.50
2013,07,12,09,28,12.40
2013,07,12,09,29,12.40
2013,07,12,09,30,12.50
2013,07,12,09,31,12.50
2013,07,12,09,32,12.60
2013,07,12,09,33,12.60
2013,07,12,09,34,12.60
2013,07,12,09,35,12.60
2013,07,12,09,36,12.50
2013,07,12,09,37,12.50
2013,07,12,09,38,12.50
2013,07,12,09,39,12.50
2013,07,12,09,40,12.50
2013,07,12,09,41,12.50
2013,07,12,09,42,12.50
2013,07,12,09,43,12.50
2013,07,12,09,44,12.40
2013,07,12,09,45,12.40
2013,07,12,09,46,12.40
2013,07,12,09,47,12.40
2013,07,12,09,48,12.40
2013,07,12,09,49,12.40
2013,07,12,09,50,12.30
2013,07,12,09,51,12.40
2013,07,12,09,52,12.40
2013,07,12,09,53,12.30
2013,07,12,09,54,12.30
2013,07,12,09,55,12.30
2013,07,12,09,56,12.30
2013,07,12,09,57,12.40
2013,07,12,09,58,12.40
2013,07,12,09,59,12.50
2013,07,12,10,00,12.50
2013,07,12,10,01,12.50
2013,07,12,10,02,12.50
2013,07,12,10,03,12.40
2013,07,12,10,04,12.40
2013,07,12,10,05,12.40
2013,07,12,10,06,12.40
2013,07,12,10,07,12.40
2013,07,12,10,08,12.40
2013,07,12,10,09,12.40
2013,07,12,10,10,12.40
2013,07,12,10,11,12.40
2013,07,12,10,12,12.40
2013,07,12,10,13,12.40
2013,07,12,10,14,12.50
2013,07,12,10,15,12.50
2013,07,12,10,16,12.50
2013,07,12,10,17,12.50
2013,07,12,10,18,12.60
2013,07,12,10,19,12.60
2013,07,12,10,20,12.60
2013,07,12,10,21,12.60
2013,07,12,10,22,12.70
2013,07,12,10,23,12.70
2013,07,12,10,24,12.70
2013,07,12,10,25,12.80
2013,07,12,10,26,12.80
2013,07,12,10,27,12.90
2013,07,12,10,28,12.90
2013,07,12,10,29,13.00
2013,07,12,10,30,13.00
2013,07,12,10,31,13.10
2013,07,12,10,32,13.10
2013,07,12,10,33,13.10
2013,07,12,10,34,13.20
2013,07,12,10,35,13.20
2013,07,12,10,36,13.10
2013,07,12,10,37,13.20
2013,07,12,10,38,13.20
2013,07,12,10,39,13.20
2013,07,12,10,40,13.30
2013,07,12,10,41,13.30
2013,07,12,10,42,13.40
2013,07,12,10,43,13.50
2013,07,12,10,44,13.50
2013,07,12,10,45,13.60
2013,07,12,10,46,13.70
2013,07,12,10,47,13.70
2013,07,12,10,48,13.60
2013,07,12,10,49,13.60
2013,07,12,10,50,13.60
2013,07,12,10,51,13.60
2013,07,12,10,52,13.50
2013,07,12,10,53,13.50
2013,07,12,10,54,13.40
2013,07,12,10,55,13.40
2013,07,12,10,56,13.40
2013,07,12,10,57,13.40
2013,07,12,10,58,13.40
2013,07,12,10,59,13.40
2013,07,12,11,00,13.40
2013,07,12,11,01,13.40
2013,07,12,11,02,13.40
2013,07,12,11,03,13.50
2013,07,12,11,04,13.50
2013,07,12,11,05,13.60
2013,07,12,11,06,13.60
2013,07,12,11,07,13.70
2013,07,12,11,08,13.70
2013,07,12,11,09,13.60
2013,07,12,11,10,13.50
2013,07,12,11,11,13.40
2013,07,12,11,12,13.40
2013,07,12,11,13,13.40
2013,07,12,11,14,13.40
2013,07,12,11,15,13.40
2013,07,12,11,16,13.40
2013,07,12,11,17,13.40
2013,07,12,11,18,13.50
2013,07,12,11,19,13.50
2013,07,12,11,20,13.60
2013,07,12,11,21,13.60
2013,07,12,11,22,13.60
2013,07,12,11,23,13.70
2013,07,12,11,24,13.70
2013,07,12,11,25,13.70
2013,07,12,11,26,13.70
2013,07,12,11,27,13.80
2013,07,12,11,28,13.70
2013,07,12,11,29,13.80
2013,07,12,11,30,13.80
2013,07,12,11,31,13.90
2013,07,12,11,32,13.90
2013,07,12,11,33,13.90
2013,07,12,11,34,13.90
2013,07,12,11,35,13.90
2013,07,12,11,36,14.00
2013,07,12,11,37,14.00
2013,07,12,11,38,14.10
2013,07,12,11,39,14.10
2013,07,12,11,40,14.20
2013,07,12,11,41,14.10
2013,07,12,11,42,14.00
2013,07,12,11,43,14.00
2013,07,12,11,44,14.00
2013,07,12,11,45,14.00
2013,07,12,11,46,14.10
2013,07,12,11,47,14.20
2013,07,12,11,48,14.30
2013,07,12,11,49,14.30
2013,07,12,11,50,14.40
2013,07,12,11,51,14.40
2013,07,12,11,52,14.40
2013,07,12,11,53,14.40
2013,07,12,11,54,14.40
2013,07,12,11,55,14.40
2013,07,12,11,56,14.30
2013,07,12,11,57,14.30
2013,07,12,11,58,14.30
2013,07,12,11,59,14.40
2013,07,12,12,00,14.50
2013,07,12,12,01,14.50
2013,07,12,12,02,14.40
2013,07,12,12,03,14.40
2013,07,12,12,04,14.40
2013,07,12,12,05,14.30
2013,07,12,12,06,14.30
2013,07,12,12,07,14.30
2013,07,12,12,08,14.30
2013,07,12,12,09,14.30
2013,07,12,12,10,14.30
2013,07,12,12,11,14.20
2013,07,12,12,12,14.10
2013,07,12,12,13,14.00
2013,07,12,12,14,13.90
2013,07,12,12,15,13.90
2013,07,12,12,16,13.80
2013,07,12,12,17,13.80
2013,07,12,12,18,13.70
2013,07,12,12,19,13.70
2013,07,12,12,20,13.80
2013,07,12,12,21,13.70
2013,07,12,12,22,13.60
2013,07,12,12,23,13.50
2013,07,12,12,24,13.50
2013,07,12,12,25,13.50
2013,07,12,12,26,13.40
2013,07,12,12,27,13.40
2013,07,12,12,28,13.30
2013,07,12,12,29,13.30
2013,07,12,12,30,13.20
2013,07,12,12,31,13.20
2013,07,12,12,32,13.30
2013,07,12,12,33,13.30
2013,07,12,12,34,13.40
2013,07,12,12,35,13.40
2013,07,12,12,36,13.40
2013,07,12,12,37,13.40
2013,07,12,12,38,13.30
2013,07,12,12,39,13.30
2013,07,12,12,40,13.30
2013,07,12,12,41,13.30
2013,07,12,12,42,13.30
2013,07,12,12,43,13.30
2013,07,12,12,44,13.30
2013,07,12,12,45,13.30
2013,07,12,12,46,13.30
2013,07,12,12,47,13.30
2013,07,12,12,48,13.30
2013,07,12,12,49,13.40
2013,07,12,12,50,13.40
2013,07,12,12,51,13.50
2013,07,12,12,52,13.50
2013,07,12,12,53,13.50
2013,07,12,12,54,13.50
2013,07,12,12,55,13.40
2013,07,12,12,56,13.40
2013,07,12,12,57,13.40
2013,07,12,12,58,13.50
2013,07,12,12,59,13.50
2013,07,12,13,00,13.50
2013,07,12,13,01,13.50
2013,07,12,13,02,13.40
2013,07,12,13,03,13.40
2013,07,12,13,04,13.50
2013,07,12,13,05,13.60
2013,07,12,13,06,13.60
2013,07,12,13,07,13.60
2013,07,12,13,08,13.70
2013,07,12,13,09,13.70
2013,07,12,13,10,13.70
2013,07,12,13,11,13.70
2013,07,12,13,12,13.70
2013,07,12,13,13,13.60
2013,07,12,13,14,13.60
2013,07,12,13,15,13.70
2013,07,12,13,16,13.70
2013,07,12,13,17,13.80
2013,07,12,13,18,13.80
2013,07,12,13,19,13.80
2013,07,12,13,20,13.80
2013,07,12,13,21,13.80
2013,07,12,13,22,13.80
2013,07,12,13,23,13.80
2013,07,12,13,24,13.70
2013,07,12,13,25,13.70
2013,07,12,13,26,13.80
2013,07,12,13,27,13.90
2013,07,12,13,28,13.90
2013,07,12,13,29,13.90
2013,07,12,13,30,14.00
2013,07,12,13,31,14.00
2013,07,12,13,32,14.10
2013,07,12,13,33,14.10
2013,07,12,13,34,14.10
2013,07,12,13,35,14.10
2013,07,12,13,36,14.10
2013,07,12,13,37,14.10
2013,07,12,13,38,14.10
2013,07,12,13,39,14.10
2013,07,12,13,40,14.10
2013,07,12,13,41,14.20
2013,07,12,13,42,14.20
2013,07,12,13,43,14.40
2013,07,12,13,44,14.40
2013,07,12,13,45,14.50
2013,07,12,13,46,14.60
2013,07,12,13,47,14.70
2013,07,12,13,48,14.70
2013,07,12,13,49,14.80
2013,07,12,13,50,14.80
2013,07,12,13,51,14.90
2013,07,12,13,52,15.00
2013,07,12,13,53,15.00
2013,07,12,13,54,15.00
2013,07,12,13,55,14.90
2013,07,12,13,56,14.90
2013,07,12,13,57,14.90
2013,07,12,13,58,14.90
2013,07,12,13,59,15.00
2013,07,12,14,00,15.10
2013,07,12,14,01,15.20
2013,07,12,14,02,15.20
2013,07,12,14,03,15.30
2013,07,12,14,04,15.40
2013,07,12,14,05,15.40
2013,07,12,14,06,15.40
2013,07,12,14,07,15.40
2013,07,12,14,08,15.40
2013,07,12,14,09,15.30
2013,07,12,14,10,15.30
2013,07,12,14,11,15.30
2013,07,12,14,12,15.20
2013,07,12,14,13,15.20
2013,07,12,14,14,15.30
2013,07,12,14,15,15.30
2013,07,12,14,16,15.40
2013,07,12,14,17,15.40
2013,07,12,14,18,15.40
2013,07,12,14,19,15.50
2013,07,12,14,20,15.50
2013,07,12,14,21,15.60
2013,07,12,14,22,15.60
2013,07,12,14,23,15.60
2013,07,12,14,24,15.60
2013,07,12,14,25,15.60
2013,07,12,14,26,15.60
2013,07,12,14,27,15.50
2013,07,12,14,28,15.50
2013,07,12,14,29,15.50
2013,07,12,14,30,15.50
2013,07,12,14,31,15.60
2013,07,12,14,32,15.60
2013,07,12,14,33,15.60
2013,07,12,14,34,15.50
2013,07,12,14,35,15.60
2013,07,12,14,36,15.50
2013,07,12,14,37,15.50
2013,07,12,14,38,15.50
2013,07,12,14,39,15.50
2013,07,12,14,40,15.60
2013,07,12,14,41,15.60
2013,07,12,14,42,15.60
2013,07,12,14,43,15.70
2013,07,12,14,44,15.70
2013,07,12,14,45,15.70
2013,07,12,14,46,15.70
2013,07,12,14,47,15.60
2013,07,12,14,48,15.50
2013,07,12,14,49,15.50
2013,07,12,14,50,15.50
2013,07,12,14,51,15.50
2013,07,12,14,52,15.50
2013,07,12,14,53,15.50
2013,07,12,14,54,15.50
2013,07,12,14,55,15.60
2013,07,12,14,56,15.60
2013,07,12,14,57,15.60
2013,07,12,14,58,15.70
2013,07,12,14,59,15.80
2013,07,12,15,00,15.80
2013,07,12,15,01,15.80
2013,07,12,15,02,15.80
2013,07,12,15,03,15.90
2013,07,12,15,04,15.90
2013,07,12,15,05,15.90
2013,07,12,15,06,15.90
2013,07,12,15,07,15.90
2013,07,12,15,08,16.00
2013,07,12,15,09,16.10
2013,07,12,15,10,16.10
2013,07,12,15,11,16.00
2013,07,12,15,12,15.90
2013,07,12,15,13,15.90
2013,07,12,15,14,15.90
2013,07,12,15,15,15.90
2013,07,12,15,16,15.90
2013,07,12,15,17,15.90
2013,07,12,15,18,15.90
2013,07,12,15,19,15.90
2013,07,12,15,20,15.90
2013,07,12,15,21,16.00
2013,07,12,15,22,16.10
2013,07,12,15,23,16.20
2013,07,12,15,24,16.20
2013,07,12,15,25,16.30
2013,07,12,15,26,16.30
2013,07,12,15,27,16.30
2013,07,12,15,28,16.10
2013,07,12,15,29,16.00
2013,07,12,15,30,15.90
2013,07,12,15,31,15.80
2013,07,12,15,32,15.70
2013,07,12,15,33,15.60
2013,07,12,15,34,15.50
2013,07,12,15,35,15.50
2013,07,12,15,36,15.40
2013,07,12,15,37,15.40
2013,07,12,15,38,15.50
2013,07,12,15,39,15.60
2013,07,12,15,40,15.70
2013,07,12,15,41,15.70
2013,07,12,15,42,15.60
2013,07,12,15,43,15.70
2013,07,12,15,44,15.60
2013,07,12,15,45,15.60
2013,07,12,15,46,15.60
2013,07,12,15,47,15.60
2013,07,12,15,48,15.60
2013,07,12,15,49,15.70
2013,07,12,15,50,15.70
2013,07,12,15,51,15.70
2013,07,12,15,52,15.70
2013,07,12,15,53,15.70
2013,07,12,15,54,15.80
2013,07,12,15,55,15.80
2013,07,12,15,56,15.70
2013,07,12,15,57,15.70
2013,07,12,15,58,15.80
2013,07,12,15,59,15.70
2013,07,12,16,00,15.70
2013,07,12,16,01,15.70
2013,07,12,16,02,15.80
2013,07,12,16,03,15.90
2013,07,12,16,04,15.90
2013,07,12,16,05,16.00
2013,07,12,16,06,16.10
2013,07,12,16,07,16.20
2013,07,12,16,08,16.20
2013,07,12,16,09,16.20
2013,07,12,16,10,16.10
2013,07,12,16,11,16.20
2013,07,12,16,12,16.20
2013,07,12,16,13,16.20
2013,07,12,16,14,16.20
2013,07,12,16,15,16.20
2013,07,12,16,16,16.30
2013,07,12,16,17,16.30
2013,07,12,16,18,16.30
2013,07,12,16,19,16.20
2013,07,12,16,20,16.10
2013,07,12,16,21,15.90
2013,07,12,16,22,15.90
2013,07,12,16,23,15.90
2013,07,12,16,24,15.80
2013,07,12,16,25,15.80
2013,07,12,16,26,15.80
2013,07,12,16,27,15.90
2013,07,12,16,28,15.80
2013,07,12,16,29,15.70
2013,07,12,16,30,15.70
2013,07,12,16,31,15.70
2013,07,12,16,32,15.70
2013,07,12,16,33,15.70
2013,07,12,16,34,15.70
2013,07,12,16,35,15.70
2013,07,12,16,36,15.70
2013,07,12,16,37,15.70
2013,07,12,16,38,15.70
2013,07,12,16,39,15.70
2013,07,12,16,40,15.70
2013,07,12,16,41,15.70
2013,07,12,16,42,15.70
2013,07,12,16,43,15.80
2013,07,12,16,44,15.80
2013,07,12,16,45,15.90
2013,07,12,16,46,15.90
2013,07,12,16,47,15.90
2013,07,12,16,48,15.90
2013,07,12,16,49,15.90
2013,07,12,16,50,15.90
2013,07,12,16,51,16.00
2013,07,12,16,52,16.00
2013,07,12,16,53,16.00
2013,07,12,16,54,15.90
2013,07,12,16,55,15.80
2013,07,12,16,56,15.70
2013,07,12,16,57,15.70
2013,07,12,16,58,15.70
2013,07,12,16,59,15.60
2013,07,12,17,00,15.60
2013,07,12,17,01,15.70
2013,07,12,17,02,15.80
2013,07,12,17,03,15.90
2013,07,12,17,04,15.90
2013,07,12,17,05,15.80
2013,07,12,17,06,15.60
2013,07,12,17,07,15.60
2013,07,12,17,08,15.60
2013,07,12,17,09,15.60
2013,07,12,17,10,15.60
2013,07,12,17,11,15.60
2013,07,12,17,12,15.60
2013,07,12,17,13,15.70
2013,07,12,17,14,15.70
2013,07,12,17,15,15.70
2013,07,12,17,16,15.70
2013,07,12,17,17,15.80
2013,07,12,17,18,15.90
2013,07,12,17,19,16.00
2013,07,12,17,20,16.00
2013,07,12,17,21,15.90
2013,07,12,17,22,15.80
2013,07,12,17,23,15.90
2013,07,12,17,24,15.90
2013,07,12,17,25,16.00